| time (UTC) | temp C | wind direction | speed KPH | gust KPH | rain 1hr cm | rain 24hr cm | rain mn cm | humidity % | barometer mb |
| 20260505114149 | 3 | 320 | 4.8 | 4.8 | 0.00 | 0.00 | 0.00 | 66 | 1012.0 |
| 20260505113646 | 2 | 48 | 4.8 | 8.0 | 0.00 | 0.00 | 0.00 | 67 | 1012.0 |
| 20260505113143 | 2 | 352 | 6.4 | 8.0 | 0.00 | 0.00 | 0.00 | 67 | 1012.0 |
| 20260505112639 | 2 | 352 | 4.8 | 4.8 | 0.00 | 0.00 | 0.00 | 67 | 1012.1 |
| 20260505112137 | 2 | 338 | 4.8 | 8.0 | 0.00 | 0.00 | 0.00 | 67 | 1012.2 |
| 20260505111631 | 2 | 345 | 4.8 | 8.0 | 0.00 | 0.00 | 0.00 | 68 | 1012.0 |
| 20260505111128 | 2 | 2 | 4.8 | 4.8 | 0.00 | 0.00 | 0.00 | 68 | 1011.7 |
| 20260505110624 | 2 | 10 | 8.0 | 8.0 | 0.00 | 0.00 | 0.00 | 68 | 1011.8 |
| 20260505110121 | 2 | 331 | 8.0 | 8.0 | 0.00 | 0.00 | 0.00 | 68 | 1011.7 |
| 20260505102057 | 2 | 70 | 3.2 | 4.8 | 0.00 | 0.00 | 0.00 | 68 | 1011.6 |
| 20260505101555 | 2 | 116 | 0.0 | 0.0 | 0.00 | 0.00 | 0.00 | 70 | 1011.5 |
| 20260505101051 | 2 | 97 | 0.0 | 3.2 | 0.00 | 0.00 | 0.00 | 72 | 1011.6 |
| 20260505100548 | 1 | 118 | 0.0 | 0.0 | 0.00 | 0.00 | 0.00 | 74 | 1011.5 |
| 20260505100045 | 1 | 111 | 0.0 | 0.0 | 0.00 | 0.00 | 0.00 | 74 | 1011.6 |
| 20260505095541 | 1 | 109 | 0.0 | 0.0 | 0.00 | 0.00 | 0.00 | 73 | 1011.3 |
| 20260505095038 | 1 | 108 | 0.0 | 0.0 | 0.00 | 0.00 | 0.00 | 73 | 1011.4 |
| 20260505094534 | 2 | 108 | 0.0 | 0.0 | 0.00 | 0.00 | 0.00 | 72 | 1011.2 |
| 20260505094030 | 2 | 106 | 0.0 | 0.0 | 0.00 | 0.00 | 0.00 | 72 | 1011.3 |
| 20260505093527 | 1 | 92 | 0.0 | 0.0 | 0.00 | 0.00 | 0.00 | 73 | 1011.3 |
| 20260505093024 | 2 | 106 | 0.0 | 0.0 | 0.00 | 0.00 | 0.00 | 72 | 1011.2 |
| 20260505092522 | 2 | 99 | 0.0 | 0.0 | 0.00 | 0.00 | 0.00 | 71 | 1011.2 |
| 20260505092020 | 2 | 99 | 0.0 | 0.0 | 0.00 | 0.00 | 0.00 | 71 | 1011.2 |
| 20260505091516 | 2 | 107 | 0.0 | 0.0 | 0.00 | 0.00 | 0.00 | 71 | 1011.1 |
| 20260505091015 | 2 | 98 | 0.0 | 0.0 | 0.00 | 0.00 | 0.00 | 71 | 1011.2 |
| 20260505090512 | 2 | 106 | 0.0 | 0.0 | 0.00 | 0.00 | 0.00 | 70 | 1011.2 |
| 20260505090010 | 2 | 103 | 0.0 | 0.0 | 0.00 | 0.00 | 0.00 | 70 | 1011.2 |
| 20260505085508 | 2 | 109 | 0.0 | 0.0 | 0.00 | 0.00 | 0.00 | 70 | 1011.3 |
| 20260505085006 | 2 | 99 | 0.0 | 0.0 | 0.00 | 0.00 | 0.00 | 71 | 1011.1 |
| 20260505084504 | 2 | 113 | 0.0 | 0.0 | 0.00 | 0.00 | 0.00 | 71 | 1011.0 |
| 20260505084001 | 2 | 112 | 0.0 | 0.0 | 0.00 | 0.00 | 0.00 | 69 | 1011.1 |
| 20260505083458 | 2 | 108 | 0.0 | 0.0 | 0.00 | 0.00 | 0.00 | 69 | 1010.9 |
| 20260505082954 | 3 | 79 | 3.2 | 3.2 | 0.00 | 0.00 | 0.00 | 67 | 1011.1 |
| 20260505082450 | 2 | 90 | 1.6 | 3.2 | 0.00 | 0.00 | 0.00 | 67 | 1010.9 |
| 20260505081947 | 2 | 110 | 0.0 | 3.2 | 0.00 | 0.00 | 0.00 | 67 | 1010.9 |
| 20260505081444 | 2 | 88 | 1.6 | 3.2 | 0.00 | 0.00 | 0.00 | 67 | 1010.7 |
| 20260505080941 | 3 | 119 | 3.2 | 4.8 | 0.00 | 0.00 | 0.00 | 66 | 1010.9 |
| 20260505080437 | 3 | 7 | 3.2 | 4.8 | 0.00 | 0.00 | 0.00 | 65 | 1010.8 |
| 20260505075932 | 3 | 96 | 1.6 | 3.2 | 0.00 | 0.00 | 0.00 | 65 | 1011.0 |
| 20260505075430 | 3 | 70 | 3.2 | 4.8 | 0.00 | 0.00 | 0.00 | 64 | 1010.9 |
| 20260505074927 | 3 | 352 | 4.8 | 4.8 | 0.00 | 0.00 | 0.00 | 63 | 1010.8 |
| 20260505074424 | 3 | 33 | 3.2 | 4.8 | 0.00 | 0.00 | 0.00 | 63 | 1010.7 |
| 20260505073921 | 3 | 331 | 4.8 | 4.8 | 0.00 | 0.00 | 0.00 | 63 | 1010.9 |
| 20260505073419 | 3 | 47 | 6.4 | 8.0 | 0.00 | 0.00 | 0.00 | 63 | 1010.9 |
| 20260505072916 | 3 | 306 | 4.8 | 8.0 | 0.00 | 0.00 | 0.00 | 62 | 1010.7 |
| 20260505072412 | 4 | 70 | 3.2 | 4.8 | 0.00 | 0.00 | 0.00 | 61 | 1010.7 |
| 20260505071908 | 4 | 107 | 3.2 | 3.2 | 0.00 | 0.00 | 0.00 | 61 | 1010.6 |
| 20260505071404 | 4 | 107 | 0.0 | 3.2 | 0.00 | 0.00 | 0.00 | 61 | 1010.7 |
| 20260505070903 | 5 | 112 | 3.2 | 4.8 | 0.00 | 0.00 | 0.00 | 59 | 1010.7 |
| 20260505070358 | 5 | 1 | 6.4 | 8.0 | 0.00 | 0.00 | 0.00 | 59 | 1010.7 |
| 20260505065854 | 5 | 346 | 6.4 | 11.3 | 0.00 | 0.00 | 0.00 | 60 | 1010.7 |
| 20260505065351 | 5 | 309 | 8.0 | 8.0 | 0.00 | 0.00 | 0.00 | 60 | 1010.6 |
| 20260505064848 | 5 | 25 | 4.8 | 4.8 | 0.00 | 0.00 | 0.00 | 59 | 1010.7 |
| 20260505064345 | 5 | 23 | 4.8 | 8.0 | 0.00 | 0.00 | 0.00 | 60 | 1010.5 |
| 20260505063844 | 5 | 60 | 4.8 | 4.8 | 0.00 | 0.00 | 0.00 | 61 | 1010.5 |
| 20260505063339 | 5 | 354 | 8.0 | 8.0 | 0.00 | 0.00 | 0.00 | 61 | 1010.3 |
| 20260505062836 | 5 | 317 | 4.8 | 8.0 | 0.00 | 0.00 | 0.00 | 62 | 1010.5 |
| 20260505062333 | 5 | 2 | 6.4 | 8.0 | 0.00 | 0.00 | 0.00 | 61 | 1010.3 |
| 20260505061830 | 5 | 109 | 3.2 | 4.8 | 0.00 | 0.00 | 0.00 | 60 | 1010.5 |
| 20260505061328 | 5 | 41 | 3.2 | 4.8 | 0.00 | 0.00 | 0.00 | 60 | 1010.5 |
| 20260505060826 | 5 | 34 | 3.2 | 4.8 | 0.00 | 0.00 | 0.00 | 61 | 1010.6 |
| 20260505060322 | 5 | 357 | 4.8 | 4.8 | 0.00 | 0.00 | 0.00 | 61 | 1010.5 |
| 20260505055818 | 5 | 51 | 3.2 | 3.2 | 0.00 | 0.00 | 0.00 | 60 | 1010.5 |
| 20260505055314 | 5 | 14 | 4.8 | 4.8 | 0.00 | 0.00 | 0.00 | 60 | 1010.2 |
| 20260505054812 | 5 | 47 | 3.2 | 4.8 | 0.00 | 0.00 | 0.00 | 60 | 1010.5 |
| 20260505054309 | 5 | 105 | 0.0 | 3.2 | 0.00 | 0.00 | 0.00 | 61 | 1010.5 |
| 20260505053807 | 5 | 108 | 0.0 | 3.2 | 0.00 | 0.00 | 0.00 | 60 | 1010.5 |
| 20260505053304 | 5 | 69 | 4.8 | 4.8 | 0.00 | 0.00 | 0.00 | 59 | 1010.5 |
| 20260505052801 | 6 | 5 | 3.2 | 4.8 | 0.00 | 0.00 | 0.00 | 59 | 1010.4 |
| 20260505052257 | 6 | 344 | 6.4 | 8.0 | 0.00 | 0.00 | 0.00 | 57 | 1010.4 |
| 20260505051754 | 6 | 328 | 4.8 | 4.8 | 0.00 | 0.00 | 0.00 | 56 | 1010.3 |
| 20260505051252 | 7 | 345 | 4.8 | 8.0 | 0.00 | 0.00 | 0.00 | 55 | 1010.6 |
| 20260505050750 | 7 | 339 | 4.8 | 8.0 | 0.00 | 0.00 | 0.00 | 54 | 1010.4 |
| 20260505050249 | 7 | 12 | 6.4 | 8.0 | 0.00 | 0.00 | 0.00 | 54 | 1010.4 |
| 20260505041718 | 8 | 355 | 6.4 | 8.0 | 0.00 | 0.00 | 0.00 | 51 | 1010.5 |
| 20260505041215 | 8 | 322 | 8.0 | 11.3 | 0.00 | 0.00 | 0.00 | 51 | 1010.5 |
| 20260505040712 | 8 | 317 | 4.8 | 4.8 | 0.00 | 0.00 | 0.00 | 51 | 1010.4 |
| 20260505040210 | 8 | 337 | 6.4 | 8.0 | 0.00 | 0.00 | 0.00 | 51 | 1010.4 |
| 20260505035706 | 8 | 339 | 6.4 | 8.0 | 0.00 | 0.00 | 0.00 | 50 | 1010.6 |
| 20260505035202 | 8 | 303 | 9.7 | 11.3 | 0.00 | 0.00 | 0.00 | 49 | 1010.4 |
| 20260505034659 | 8 | 315 | 9.7 | 11.3 | 0.00 | 0.00 | 0.00 | 49 | 1010.5 |
| 20260505034156 | 8 | 37 | 3.2 | 4.8 | 0.00 | 0.00 | 0.00 | 50 | 1010.3 |
| 20260505033652 | 8 | 349 | 6.4 | 8.0 | 0.00 | 0.00 | 0.00 | 49 | 1010.4 |
| 20260505033151 | 9 | 331 | 6.4 | 8.0 | 0.00 | 0.00 | 0.00 | 49 | 1010.4 |
| 20260505032649 | 9 | 57 | 8.0 | 11.3 | 0.00 | 0.00 | 0.00 | 48 | 1010.3 |
| 20260505032144 | 9 | 62 | 6.4 | 8.0 | 0.00 | 0.00 | 0.00 | 48 | 1010.4 |
| 20260505031642 | 10 | 22 | 8.0 | 11.3 | 0.00 | 0.00 | 0.00 | 47 | 1010.3 |
| 20260505031138 | 10 | 19 | 4.8 | 4.8 | 0.00 | 0.00 | 0.00 | 47 | 1010.3 |
| 20260505030635 | 10 | 63 | 8.0 | 11.3 | 0.00 | 0.00 | 0.00 | 46 | 1010.3 |
| 20260505030131 | 10 | 82 | 9.7 | 14.5 | 0.00 | 0.00 | 0.00 | 46 | 1010.3 |
| 20260505025627 | 10 | 333 | 9.7 | 11.3 | 0.00 | 0.00 | 0.00 | 45 | 1010.2 |
| 20260505025126 | 10 | 312 | 6.4 | 11.3 | 0.00 | 0.00 | 0.00 | 46 | 1010.0 |
| 20260505024623 | 10 | 17 | 9.7 | 14.5 | 0.00 | 0.00 | 0.00 | 46 | 1010.0 |
| 20260505024120 | 10 | 32 | 4.8 | 4.8 | 0.00 | 0.00 | 0.00 | 46 | 1009.8 |
| 20260505023617 | 10 | 313 | 6.4 | 11.3 | 0.00 | 0.00 | 0.00 | 45 | 1010.0 |
| 20260505023114 | 10 | 328 | 12.9 | 16.1 | 0.00 | 0.00 | 0.00 | 44 | 1009.7 |
| 20260505022612 | 11 | 13 | 8.0 | 8.0 | 0.00 | 0.00 | 0.00 | 45 | 1009.9 |
| 20260505022109 | 11 | 315 | 6.4 | 8.0 | 0.00 | 0.00 | 0.00 | 45 | 1009.5 |
| 20260505021605 | 11 | 9 | 3.2 | 4.8 | 0.00 | 0.00 | 0.00 | 45 | 1009.6 |
| 20260505021102 | 11 | 321 | 8.0 | 11.3 | 0.00 | 0.00 | 0.00 | 44 | 1009.5 |
| 20260505020602 | 11 | 334 | 8.0 | 14.5 | 0.00 | 0.00 | 0.00 | 43 | 1009.5 |
| 20260505020059 | 11 | 316 | 6.4 | 11.3 | 0.00 | 0.00 | 0.00 | 43 | 1009.4 |
| 20260505015556 | 11 | 344 | 8.0 | 11.3 | 0.00 | 0.00 | 0.00 | 43 | 1009.4 |
| 20260505015053 | 11 | 327 | 9.7 | 14.5 | 0.00 | 0.00 | 0.00 | 43 | 1009.5 |
| 20260505014550 | 11 | 309 | 9.7 | 16.1 | 0.00 | 0.00 | 0.00 | 42 | 1009.3 |
| 20260505014047 | 11 | 323 | 4.8 | 8.0 | 0.00 | 0.00 | 0.00 | 43 | 1009.4 |
| 20260505013544 | 11 | 338 | 9.7 | 11.3 | 0.00 | 0.00 | 0.00 | 42 | 1009.3 |
| 20260505013041 | 11 | 326 | 11.3 | 16.1 | 0.00 | 0.00 | 0.00 | 42 | 1009.4 |
| 20260505012539 | 11 | 21 | 11.3 | 14.5 | 0.00 | 0.00 | 0.00 | 41 | 1009.3 |
| 20260505012036 | 11 | 358 | 9.7 | 14.5 | 0.00 | 0.00 | 0.00 | 41 | 1009.3 |
| 20260505011537 | 11 | 289 | 12.9 | 16.1 | 0.00 | 0.00 | 0.00 | 41 | 1009.3 |
| 20260505011034 | 11 | 82 | 19.3 | 22.5 | 0.00 | 0.00 | 0.00 | 40 | 1009.1 |
| 20260505010529 | 11 | 105 | 3.2 | 4.8 | 0.00 | 0.00 | 0.00 | 41 | 1009.0 |
| 20260505010026 | 11 | 339 | 6.4 | 8.0 | 0.00 | 0.00 | 0.00 | 40 | 1008.9 |
| 20260505005522 | 12 | 318 | 14.5 | 19.3 | 0.00 | 0.00 | 0.00 | 40 | 1008.8 |
| 20260505005020 | 12 | 52 | 9.7 | 14.5 | 0.00 | 0.00 | 0.00 | 39 | 1008.8 |
| 20260505004517 | 12 | 347 | 11.3 | 16.1 | 0.00 | 0.00 | 0.00 | 39 | 1008.8 |
| 20260505004014 | 12 | 1 | 12.9 | 16.1 | 0.00 | 0.00 | 0.00 | 39 | 1008.9 |
| 20260505003511 | 12 | 313 | 11.3 | 16.1 | 0.00 | 0.00 | 0.00 | 39 | 1008.8 |
| 20260505003009 | 12 | 293 | 12.9 | 19.3 | 0.00 | 0.00 | 0.00 | 38 | 1008.8 |
| 20260505002503 | 12 | 15 | 9.7 | 14.5 | 0.00 | 0.00 | 0.00 | 39 | 1008.7 |
| 20260505002002 | 12 | 316 | 11.3 | 14.5 | 0.00 | 0.00 | 0.00 | 39 | 1008.8 |
| 20260505001459 | 12 | 285 | 19.3 | 24.1 | 0.00 | 0.00 | 0.00 | 38 | 1008.8 |
| 20260505000956 | 12 | 27 | 20.9 | 27.4 | 0.00 | 0.00 | 0.00 | 38 | 1008.6 |
| 20260505000454 | 12 | 33 | 20.9 | 24.1 | 0.00 | 0.00 | 0.00 | 39 | 1008.7 |
| 20260504235951 | 12 | 347 | 20.9 | 27.4 | 0.00 | 0.00 | 0.00 | 39 | 1008.8 |
| 20260504235448 | 13 | 325 | 12.9 | 16.1 | 0.00 | 0.00 | 0.00 | 39 | 1009.0 |
| 20260504234944 | 12 | 100 | 6.4 | 8.0 | 0.00 | 0.00 | 0.00 | 39 | 1008.8 |
| 20260504234441 | 12 | 327 | 20.9 | 24.1 | 0.00 | 0.00 | 0.00 | 39 | 1008.8 |
| 20260504233938 | 13 | 277 | 17.7 | 24.1 | 0.00 | 0.00 | 0.00 | 39 | 1008.5 |
| 20260504233434 | 13 | 31 | 20.9 | 24.1 | 0.00 | 0.00 | 0.00 | 39 | 1008.8 |
| 20260504232931 | 12 | 34 | 16.1 | 19.3 | 0.00 | 0.00 | 0.00 | 39 | 1008.7 |
| 20260504232428 | 13 | 7 | 19.3 | 22.5 | 0.00 | 0.00 | 0.00 | 40 | 1008.5 |
| 20260504231925 | 13 | 327 | 14.5 | 22.5 | 0.00 | 0.00 | 0.00 | 40 | 1008.6 |
| 20260504231421 | 13 | 298 | 17.7 | 27.4 | 0.00 | 0.00 | 0.00 | 39 | 1008.6 |
| 20260504230917 | 13 | 11 | 12.9 | 19.3 | 0.00 | 0.00 | 0.00 | 40 | 1008.5 |
| 20260504230414 | 13 | 345 | 16.1 | 24.1 | 0.00 | 0.00 | 0.00 | 39 | 1008.5 |
| 20260504225914 | 13 | 73 | 16.1 | 22.5 | 0.00 | 0.00 | 0.00 | 39 | 1008.4 |
| 20260504225410 | 13 | 333 | 27.4 | 35.4 | 0.00 | 0.00 | 0.00 | 38 | 1008.2 |
| 20260504224908 | 13 | 332 | 29.0 | 35.4 | 0.00 | 0.00 | 0.00 | 38 | 1008.5 |
| 20260504224404 | 13 | 13 | 17.7 | 24.1 | 0.00 | 0.00 | 0.00 | 38 | 1008.3 |
| 20260504223902 | 13 | 311 | 29.0 | 35.4 | 0.00 | 0.00 | 0.00 | 37 | 1008.2 |
| 20260504223356 | 13 | 310 | 24.1 | 27.4 | 0.00 | 0.00 | 0.00 | 38 | 1007.9 |
| 20260504222853 | 13 | 350 | 33.8 | 41.8 | 0.00 | 0.00 | 0.00 | 38 | 1007.9 |
| 20260504222350 | 14 | 341 | 22.5 | 27.4 | 0.00 | 0.00 | 0.00 | 40 | 1007.9 |
| 20260504221849 | 13 | 338 | 27.4 | 35.4 | 0.00 | 0.00 | 0.00 | 40 | 1008.0 |
| 20260504221345 | 13 | 14 | 20.9 | 24.1 | 0.00 | 0.00 | 0.00 | 41 | 1008.0 |
| 20260504220842 | 13 | 348 | 24.1 | 27.4 | 0.00 | 0.00 | 0.00 | 41 | 1008.1 |
| 20260504220339 | 13 | 325 | 20.9 | 27.4 | 0.00 | 0.00 | 0.00 | 41 | 1008.0 |
| 20260504215836 | 13 | 290 | 27.4 | 38.6 | 0.00 | 0.00 | 0.00 | 41 | 1008.0 |
| 20260504215332 | 13 | 312 | 30.6 | 38.6 | 0.00 | 0.00 | 0.00 | 42 | 1008.0 |
| 20260504214828 | 13 | 10 | 37.0 | 51.5 | 0.00 | 0.00 | 0.00 | 41 | 1008.2 |
| 20260504214326 | 13 | 312 | 35.4 | 43.5 | 0.00 | 0.00 | 0.00 | 40 | 1008.2 |
| 20260504213822 | 13 | 310 | 30.6 | 43.5 | 0.00 | 0.00 | 0.00 | 41 | 1008.3 |
| 20260504213318 | 13 | 343 | 20.9 | 27.4 | 0.00 | 0.00 | 0.00 | 40 | 1008.2 |
| 20260504212816 | 13 | 331 | 30.6 | 41.8 | 0.00 | 0.00 | 0.00 | 41 | 1008.0 |
| 20260504212311 | 13 | 327 | 30.6 | 38.6 | 0.00 | 0.00 | 0.00 | 41 | 1008.2 |
| 20260504211810 | 13 | 319 | 35.4 | 43.5 | 0.00 | 0.00 | 0.00 | 42 | 1008.1 |
| 20260504211305 | 13 | 330 | 27.4 | 35.4 | 0.00 | 0.00 | 0.00 | 41 | 1008.0 |
| 20260504210803 | 13 | 341 | 27.4 | 30.6 | 0.00 | 0.00 | 0.00 | 41 | 1008.0 |
| 20260504210300 | 13 | 327 | 38.6 | 51.5 | 0.00 | 0.00 | 0.00 | 42 | 1007.9 |
| 20260504205757 | 13 | 296 | 25.7 | 33.8 | 0.00 | 0.00 | 0.00 | 41 | 1008.0 |
| 20260504205255 | 13 | 299 | 32.2 | 38.6 | 0.00 | 0.00 | 0.00 | 42 | 1008.0 |
| 20260504204753 | 14 | 0 | 22.5 | 33.8 | 0.00 | 0.00 | 0.00 | 40 | 1008.2 |
| 20260504204251 | 13 | 291 | 33.8 | 46.7 | 0.00 | 0.00 | 0.00 | 40 | 1008.0 |
| 20260504203750 | 14 | 327 | 24.1 | 33.8 | 0.00 | 0.00 | 0.00 | 40 | 1007.8 |
| 20260504203247 | 14 | 301 | 19.3 | 24.1 | 0.00 | 0.00 | 0.00 | 39 | 1007.5 |
| 20260504202746 | 14 | 330 | 29.0 | 35.4 | 0.00 | 0.00 | 0.00 | 39 | 1007.5 |
| 20260504202244 | 15 | 355 | 27.4 | 41.8 | 0.00 | 0.00 | 0.00 | 37 | 1007.3 |
| 20260504201741 | 15 | 322 | 19.3 | 33.8 | 0.00 | 0.00 | 0.00 | 38 | 1007.2 |
| 20260504201238 | 15 | 47 | 12.9 | 19.3 | 0.00 | 0.00 | 0.00 | 39 | 1007.3 |
| 20260504200736 | 15 | 330 | 27.4 | 38.6 | 0.00 | 0.00 | 0.00 | 38 | 1007.2 |
| 20260504200231 | 15 | 314 | 25.7 | 33.8 | 0.00 | 0.00 | 0.00 | 36 | 1007.2 |
| 20260504195728 | 15 | 288 | 20.9 | 30.6 | 0.00 | 0.00 | 0.00 | 36 | 1007.1 |
| 20260504195224 | 17 | 304 | 25.7 | 30.6 | 0.00 | 0.00 | 0.00 | 36 | 1007.0 |
| 20260504194721 | 15 | 42 | 6.4 | 8.0 | 0.00 | 0.00 | 0.00 | 38 | 1007.0 |
| 20260504194217 | 16 | 8 | 22.5 | 27.4 | 0.00 | 0.00 | 0.00 | 37 | 1007.0 |
| 20260504193714 | 16 | 303 | 19.3 | 33.8 | 0.00 | 0.00 | 0.00 | 35 | 1006.9 |
| 20260504193212 | 16 | 21 | 24.1 | 33.8 | 0.00 | 0.00 | 0.00 | 36 | 1006.7 |
| 20260504192710 | 16 | 244 | 24.1 | 30.6 | 0.00 | 0.00 | 0.00 | 36 | 1006.7 |
| 20260504192207 | 16 | 76 | 32.2 | 41.8 | 0.00 | 0.00 | 0.00 | 36 | 1006.7 |
| 20260504191706 | 16 | 353 | 24.1 | 30.6 | 0.00 | 0.00 | 0.00 | 36 | 1006.7 |
| 20260504191202 | 16 | 12 | 32.2 | 43.5 | 0.00 | 0.00 | 0.00 | 34 | 1006.7 |
| 20260504190657 | 17 | 332 | 25.7 | 33.8 | 0.00 | 0.00 | 0.00 | 36 | 1006.5 |
| 20260504190154 | 17 | 342 | 14.5 | 22.5 | 0.00 | 0.00 | 0.00 | 36 | 1006.4 |
| 20260504185651 | 17 | 350 | 20.9 | 30.6 | 0.00 | 0.00 | 0.00 | 36 | 1006.4 |
| 20260504185148 | 17 | 326 | 14.5 | 19.3 | 0.00 | 0.00 | 0.00 | 37 | 1006.3 |
| 20260504184644 | 17 | 34 | 25.7 | 30.6 | 0.00 | 0.00 | 0.00 | 36 | 1006.3 |
| 20260504184138 | 17 | 314 | 27.4 | 33.8 | 0.00 | 0.00 | 0.00 | 36 | 1006.1 |
| 20260504183636 | 17 | 46 | 17.7 | 33.8 | 0.00 | 0.00 | 0.00 | 37 | 1006.3 |
| 20260504183133 | 17 | 335 | 20.9 | 24.1 | 0.00 | 0.00 | 0.00 | 36 | 1006.1 |
| 20260504182631 | 17 | 5 | 25.7 | 35.4 | 0.00 | 0.00 | 0.00 | 37 | 1006.0 |
| 20260504182128 | 18 | 228 | 17.7 | 24.1 | 0.00 | 0.00 | 0.00 | 36 | 1006.0 |
| 20260504181625 | 17 | 305 | 19.3 | 24.1 | 0.00 | 0.00 | 0.00 | 36 | 1006.0 |
| 20260504181123 | 17 | 322 | 33.8 | 46.7 | 0.00 | 0.00 | 0.00 | 35 | 1006.0 |
| 20260504180622 | 17 | 280 | 27.4 | 38.6 | 0.00 | 0.00 | 0.00 | 36 | 1005.8 |
| 20260504180120 | 17 | 316 | 33.8 | 41.8 | 0.00 | 0.00 | 0.00 | 34 | 1005.9 |
| 20260504175617 | 18 | 15 | 25.7 | 33.8 | 0.00 | 0.00 | 0.00 | 34 | 1005.8 |
| 20260504175114 | 18 | 322 | 19.3 | 24.1 | 0.00 | 0.00 | 0.00 | 32 | 1005.9 |
| 20260504174612 | 18 | 337 | 20.9 | 30.6 | 0.00 | 0.00 | 0.00 | 33 | 1005.6 |
| 20260504174108 | 17 | 299 | 20.9 | 27.4 | 0.00 | 0.00 | 0.00 | 35 | 1005.6 |
| 20260504173605 | 17 | 290 | 20.9 | 27.4 | 0.00 | 0.00 | 0.00 | 34 | 1005.6 |
| 20260504173103 | 18 | 322 | 35.4 | 41.8 | 0.00 | 0.00 | 0.00 | 33 | 1005.5 |
| 20260504172559 | 18 | 330 | 11.3 | 22.5 | 0.00 | 0.00 | 0.00 | 33 | 1005.7 |
| 20260504172055 | 17 | 316 | 19.3 | 22.5 | 0.00 | 0.00 | 0.00 | 34 | 1005.5 |
| 20260504171552 | 17 | 302 | 29.0 | 38.6 | 0.00 | 0.00 | 0.00 | 34 | 1005.5 |
| 20260504171049 | 18 | 295 | 20.9 | 24.1 | 0.00 | 0.00 | 0.00 | 33 | 1005.5 |
| 20260504170545 | 18 | 57 | 16.1 | 24.1 | 0.00 | 0.00 | 0.00 | 35 | 1005.2 |
| 20260504150924 | 17 | 88 | 19.3 | 24.1 | 0.00 | 0.00 | 0.00 | 38 | 1004.4 |
| 20260504150421 | 17 | 102 | 12.9 | 19.3 | 0.00 | 0.00 | 0.00 | 41 | 1003.9 |
| 20260504140846 | 16 | 236 | 9.7 | 11.3 | 0.00 | 0.00 | 0.00 | 50 | 1003.2 |
| 20260504140342 | 16 | 104 | 19.3 | 22.5 | 0.00 | 0.00 | 0.00 | 50 | 1003.2 |
| 20260504130811 | 14 | 332 | 20.9 | 24.1 | 0.00 | 0.00 | 0.00 | 59 | 1002.7 |
| 20260504130307 | 13 | 357 | 14.5 | 16.1 | 0.00 | 0.00 | 0.00 | 61 | 1002.5 |
| 20260504120231 | 10 | 30 | 3.2 | 4.8 | 0.00 | 0.00 | 0.00 | 67 | 1001.7 |